Stations météo

Publicité
Luxeuil, France (7292): Température de l'air & dewpoint: 16.11.2018 12:00:00 - 22.11.2018 12:00:00 (CET)Luxeuil, France (7292): Température de l'air 5cm: 16.11.2018 12:00:00 - 22.11.2018 12:00:00 (CET)Luxeuil, France (7292): Température de l'air -20cm & Température de l'air -100cm: 16.11.2018 12:00:00 - 22.11.2018 12:00:00 (CET)Luxeuil, France (7292): Vitesse du vent & gusts: 16.11.2018 12:00:00 - 22.11.2018 12:00:00 (CET)Luxeuil, France (7292): Direction du vent: 16.11.2018 12:00:00 - 22.11.2018 12:00:00 (CET)Luxeuil, France (7292): reduced air pressure: 16.11.2018 12:00:00 - 22.11.2018 12:00:00 (CET)Luxeuil, France (7292): visibility: 16.11.2018 12:00:00 - 22.11.2018 12:00:00 (CET)Luxeuil, France (7292): Ensoleillement: 16.11.2018 12:00:00 - 22.11.2018 12:00:00 (CET)Luxeuil, France (7292): Quantités de précipitations: 16.11.2018 12:00:00 - 22.11.2018 12:00:00 (CET)
Date & Time tt [°C] td [°C] tt 5cm [°C] tt -20cm [°C] tt -100cm [°C] ff [km/h] ff [knt] fx [km/h] fx [knt] dd ppp [hPa] vv [km] sd [min] rr [mm]
22.11.2018 12:00:00 - - - - - - - - - - - - - -
22.11.2018 11:00:00 5,6 1,5 4,8 6,3 12,2 14 8 20 11 SE 1019,3 9 30 0,0
22.11.2018 10:00:00 3,3 0,7 0,7 6,4 12,2 12 6 23 12 ESE 1019,4 7 48 0,0
22.11.2018 09:00:00 1,0 -0,8 -0,4 6,5 12,2 7 4 12 6 E 1019,4 4,8 42 0,0
22.11.2018 08:00:00 0,0 -1,3 -0,6 6,6 12,2 10 6 14 8 ENE 1019,2 4,3 0 0,0
22.11.2018 07:00:00 0,6 -0,9 -1,6 6,6 12,2 8 5 11 6 E 1018,8 4,7 0 0,0
22.11.2018 06:00:00 0,6 -0,9 -1,2 6,6 12,3 5 3 14 8 ESE 1018,7 6 0 0,0
22.11.2018 05:00:00 1,6 -0,2 1,0 6,6 12,3 10 6 16 9 E 1018,5 6 0 0,0
22.11.2018 04:00:00 1,2 -0,6 1,0 6,7 12,3 8 4 20 11 ESE 1018,5 6 0 0,0
22.11.2018 03:00:00 1,1 -0,5 -1,4 6,7 12,3 6 3 11 6 ESE 1018,6 6 0 0,0
22.11.2018 02:00:00 0,8 -1,1 -0,1 6,7 12,3 5 3 19 10 ESE 1018,3 6 0 0,0
22.11.2018 01:00:00 1,5 -0,7 0,5 6,8 12,3 8 5 15 8 E 1018,3 7 0 0,0
22.11.2018 00:00:00 2,1 -0,2 1,9 6,8 12,3 9 5 15 8 E 1018,2 7 0 0,0
21.11.2018 23:00:00 2,4 -0,5 1,0 6,8 12,3 8 4 19 11 ESE 1018,2 8 0 0,0
21.11.2018 22:00:00 2,0 -0,8 0,9 6,8 12,3 11 6 16 9 ESE 1018,0 7 0 0,0
21.11.2018 21:00:00 2,7 -0,8 1,4 6,8 12,3 11 6 26 14 ESE 1017,6 8 0 0,0
21.11.2018 20:00:00 3,7 0,0 2,9 6,8 12,3 16 9 24 13 SE 1017,0 9 0 0,0
21.11.2018 19:00:00 3,7 -0,3 2,8 6,8 12,4 8 4 14 8 ESE 1016,5 8 0 0,0
21.11.2018 18:00:00 4,4 0,2 3,8 6,7 12,4 8 4 19 10 SE 1016,0 9 0 0,0
21.11.2018 17:00:00 5,3 0,5 5,0 6,6 12,4 10 5 17 9 SE 1015,2 9 0 0,0
21.11.2018 16:00:00 6,2 1,3 6,1 6,5 12,4 4 2 8 5 SE 1014,6 12 0 0,0
21.11.2018 15:00:00 6,4 1,5 6,7 6,5 12,4 4 2 6 3 NNE 1014,0 10 0 0,0
21.11.2018 14:00:00 5,9 2,4 6,6 6,3 12,4 3 2 8 5 N 1013,8 9 0 0,0
21.11.2018 13:00:00 5,1 1,9 5,2 6,3 12,4 4 2 8 4 WSW 1013,8 7 0 0,0
21.11.2018 12:00:00 4,3 2,2 3,8 6,3 12,4 2 1 9 5 E 1013,8 6 0 0,0
21.11.2018 11:00:00 3,3 1,5 2,6 6,3 12,5 5 3 18 10 SE 1013,9 4,9 0 0,0
21.11.2018 10:00:00 2,6 1,1 2,1 6,3 12,5 14 8 23 13 SSE 1013,6 3,7 0 0,4
21.11.2018 09:00:00 2,4 0,5 1,6 6,3 12,5 6 3 12 7 E 1013,1 6 0 0,2
21.11.2018 08:00:00 2,5 0,1 1,5 6,4 12,5 4 2 12 6 WSW 1012,6 7 0 0,0
21.11.2018 07:00:00 2,4 0,3 1,5 6,3 12,5 9 5 17 9 ESE 1011,1 6 0 0,2
21.11.2018 06:00:00 2,1 0,5 1,6 6,4 12,5 9 5 11 6 E 1011,0 6 0 0,0
21.11.2018 05:00:00 2,4 -0,5 1,4 6,3 12,5 5 3 12 7 E 1010,6 9 0 0,0
21.11.2018 04:00:00 2,1 -0,3 1,3 6,4 12,5 9 5 13 7 NE 1010,0 8 0 0,0
21.11.2018 03:00:00 1,6 -0,5 1,2 6,4 12,5 8 4 16 9 ESE 1010,3 7 0 0,0
21.11.2018 02:00:00 2,0 -1,1 1,3 6,4 12,6 11 6 17 9 ESE 1009,6 9 0 0,0
21.11.2018 01:00:00 2,4 -1,0 1,2 6,5 12,6 2 1 9 5 W 1009,3 8 0 0,0
21.11.2018 00:00:00 2,0 -1,4 0,8 6,5 12,6 2 1 16 9 N 1008,0 10 0 0,0
20.11.2018 23:00:00 1,9 -1,4 1,0 6,5 12,6 14 7 23 12 SE 1007,5 9 0 0,0
20.11.2018 22:00:00 2,1 -1,3 1,3 6,5 12,6 16 8 33 18 ESE 1007,2 9 0 0,0
20.11.2018 21:00:00 2,3 -0,8 1,5 6,5 12,6 17 9 35 19 SSE 1007,6 9 0 0,0
20.11.2018 20:00:00 2,2 -0,6 1,3 6,5 12,6 20 11 29 16 SE 1006,9 8 0 0,0
20.11.2018 19:00:00 2,0 0,2 1,3 6,5 12,7 23 12 35 19 SE 1006,3 5 0 0,6
20.11.2018 18:00:00 2,3 -0,1 1,4 6,4 12,7 19 11 37 20 SSE 1005,9 8 0 0,0
20.11.2018 17:00:00 2,6 -0,2 1,5 6,4 12,7 23 12 37 20 SE 1005,1 9 0 0,0
20.11.2018 16:00:00 3,8 -1,0 3,8 6,3 12,7 23 12 34 18 ESE 1003,7 14 0 0,0
20.11.2018 15:00:00 4,1 -1,5 4,5 6,2 12,7 26 14 36 20 SE 1004,1 15 2 0,0
20.11.2018 14:00:00 4,8 -1,2 5,5 6,2 12,7 23 12 35 19 SE 1003,5 15 8 0,0
20.11.2018 13:00:00 4,6 -1,2 5,6 6,1 12,7 26 14 38 21 SE 1003,9 16 32 0,0
20.11.2018 12:00:00 3,7 -0,9 2,9 6,1 12,7 19 10 43 23 SE 1004,1 13 13 0,0
20.11.2018 11:00:00 2,5 -1,1 2,6 6,2 12,7 23 13 39 21 SE 1004,2 12 0 0,0
20.11.2018 10:00:00 2,9 -2,4 2,0 6,2 12,8 27 15 46 25 ESE 1003,8 16 2 0,0
20.11.2018 09:00:00 2,0 -2,5 -0,9 6,3 12,8 26 14 36 20 SE 1004,1 14 0 0,0
20.11.2018 08:00:00 -0,3 -2,7 -0,9 6,3 12,9 2 1 11 6 N 1004,3 12 0 0,0
20.11.2018 07:00:00 -0,2 -2,6 -1,0 6,4 12,8 9 5 14 7 ENE 1003,9 12 0 0,0
20.11.2018 06:00:00 -0,4 -2,6 -0,7 6,4 12,8 10 6 26 14 ENE 1004,2 13 0 0,0
20.11.2018 05:00:00 0,0 -2,7 -1,5 6,4 12,8 5 3 9 5 NNE 1004,6 11 0 0,0
20.11.2018 04:00:00 -0,5 -2,6 -1,0 6,5 12,9 7 4 16 9 ENE 1004,4 11 0 0,0
20.11.2018 03:00:00 -0,6 -2,5 -3,3 6,6 12,9 8 4 12 7 ENE 1004,8 9 0 0,0
20.11.2018 02:00:00 -1,4 -2,8 -2,9 6,6 12,9 4 2 10 5 W 1005,1 8 0 0,0
20.11.2018 01:00:00 -0,9 -2,3 -3,3 6,6 12,9 3 1 8 5 N 1004,9 10 0 0,0
20.11.2018 00:00:00 -0,5 -2,6 -1,8 6,6 12,9 5 3 10 5 W 1005,5 10 0 0,0
19.11.2018 23:00:00 0,3 -2,1 -1,0 6,6 12,9 5 3 7 4 NW 1005,4 9 0 0,0
19.11.2018 22:00:00 0,4 -2,3 -1,3 6,6 12,9 2 1 9 5 S 1005,8 15 0 0,0
19.11.2018 21:00:00 1,1 -2,3 0,5 6,7 12,9 2 1 5 3 SE 1006,1 16 0 0,0
19.11.2018 20:00:00 1,0 -2,4 0,3 6,7 12,9 0 0 7 4 N 1006,6 20 0 0,0
19.11.2018 19:00:00 1,8 -2,7 0,4 6,6 13,0 5 3 11 6 N 1006,8 20 0 0,0
19.11.2018 18:00:00 2,7 -2,6 1,7 6,6 13,0 4 2 14 8 N 1007,0 25 0 0,0
19.11.2018 17:00:00 3,1 -2,8 2,7 6,5 13,0 9 5 21 11 NNE 1007,4 36 0 0,0
19.11.2018 16:00:00 3,7 -3,8 3,6 6,4 13,0 12 7 34 18 NE 1007,6 43 0 0,0
19.11.2018 15:00:00 4,4 -4,4 4,4 6,3 13,0 18 10 36 20 E 1007,8 39 0 0,0
19.11.2018 14:00:00 5,2 -3,6 6,0 6,2 13,0 21 11 35 19 E 1008,0 50 13 0,0
19.11.2018 13:00:00 4,6 -2,7 5,7 6,3 13,0 11 6 29 16 NE 1008,9 20 33 0,0
19.11.2018 12:00:00 3,1 -3,1 4,7 6,3 13,1 13 7 34 19 NNE 1010,0 18 35 0,0
19.11.2018 11:00:00 2,1 -3,4 0,5 6,4 13,1 16 9 31 17 NNE 1011,2 18 4 0,0
19.11.2018 10:00:00 0,5 -4,2 -2,9 6,5 13,1 11 6 36 20 N 1011,8 29 0 0,0
19.11.2018 09:00:00 -1,0 -3,2 -3,5 6,6 13,1 9 5 15 8 SW 1012,4 13 2 0,0
19.11.2018 08:00:00 -3,5 -4,3 -5,2 6,6 13,1 4 2 6 4 NW 1013,4 6 0 0,0
19.11.2018 07:00:00 -4,7 -5,7 -8,0 6,8 13,1 2 1 9 5 ESE 1013,8 7 0 0,0
19.11.2018 06:00:00 -5,0 -5,8 -8,9 6,9 13,2 0 0 6 3 N 1014,5 7 0 0,0
19.11.2018 05:00:00 -6,3 -7,8 -8,0 7,0 13,1 3 2 7 4 SSW 1015,2 1,4 0 0,0
19.11.2018 04:00:00 -4,4 -5,4 -8,6 7,1 13,2 0 0 6 4 N 1015,6 3,4 0 0,0
19.11.2018 03:00:00 -4,6 -5,4 -7,7 7,2 13,2 3 2 7 4 WSW 1016,1 3,9 0 0,0
19.11.2018 02:00:00 -3,8 -4,5 -7,1 7,3 13,2 3 2 6 3 E 1016,7 4,3 0 0,0
19.11.2018 01:00:00 -3,0 -4,0 -6,5 7,4 13,2 2 1 6 3 N 1017,4 2,7 0 0,0
19.11.2018 00:00:00 -1,8 -3,2 -3,5 7,5 13,2 3 2 5 3 WNW 1017,9 5 0 0,0
18.11.2018 23:00:00 -1,0 -2,3 -3,7 7,6 13,2 3 2 10 5 NNE 1018,4 6 0 0,0
18.11.2018 22:00:00 -1,8 -3,1 -3,7 7,6 13,2 5 3 10 5 E 1018,8 8 0 0,0
18.11.2018 21:00:00 -3,0 -4,6 -5,2 7,7 13,2 3 2 8 4 WSW 1019,3 5 0 0,0
18.11.2018 20:00:00 -0,9 -2,6 -4,1 7,7 13,2 3 2 7 4 NE 1019,5 7 0 0,0
18.11.2018 19:00:00 -0,1 -3,0 -3,9 7,7 13,2 2 1 6 3 E 1019,6 14 0 0,0
18.11.2018 18:00:00 1,6 -2,0 -2,3 7,7 13,3 5 3 13 7 E 1019,9 15 0 0,0
18.11.2018 17:00:00 2,7 -1,7 1,9 7,6 13,3 8 4 24 13 SE 1020,3 16 27 0,0
18.11.2018 16:00:00 5,1 -1,2 6,7 7,4 13,3 15 8 23 12 SSE 1020,5 19 60 0,0
18.11.2018 15:00:00 6,3 -0,9 10,0 7,3 13,2 15 8 23 12 SSE 1020,2 19 60 0,0
18.11.2018 14:00:00 6,2 -1,5 9,7 7,2 13,3 11 6 23 12 SSE 1020,3 20 60 0,0
18.11.2018 13:00:00 6,2 -1,0 9,0 7,2 13,3 15 8 23 12 SSE 1020,4 19 60 0,0
18.11.2018 12:00:00 5,6 -1,3 7,3 7,3 13,3 14 7 23 12 SSE 1021,2 18 60 0,0
18.11.2018 11:00:00 3,7 -0,5 2,4 7,4 13,3 3 2 10 6 NNE 1022,2 17 60 0,0
18.11.2018 10:00:00 0,9 -1,0 -4,6 7,5 13,3 3 1 6 4 NE 1022,6 9 60 0,0
18.11.2018 09:00:00 -3,1 -4,2 -8,0 7,7 13,3 3 2 5 3 N 1023,4 1,4 49 0,0
18.11.2018 08:00:00 -6,0 -7,5 -8,6 7,8 13,3 2 1 6 4 W 1023,8 2,3 0 0,0
18.11.2018 07:00:00 -5,5 -6,6 -8,8 7,9 13,3 2 1 11 6 WSW 1023,5 0,6 0 0,0
18.11.2018 06:00:00 -5,0 -6,2 -8,2 8,1 13,3 4 2 9 5 SSW 1023,8 4,0 0 0,0
18.11.2018 05:00:00 -4,9 -5,7 -8,4 8,2 13,3 4 2 11 6 NNE 1024,2 4,8 0 0,0
18.11.2018 04:00:00 -3,8 -4,8 -6,3 8,4 13,4 5 3 10 6 W 1024,4 4,7 0 0,0
18.11.2018 03:00:00 -2,3 -3,1 -5,6 8,5 13,4 6 3 9 5 NE 1024,4 6 0 0,0
18.11.2018 02:00:00 -2,9 -3,6 -6,3 8,6 13,3 8 4 11 6 ESE 1024,7 7 0 0,0
18.11.2018 01:00:00 -3,0 -3,7 -6,0 8,8 13,4 6 3 7 4 SE 1024,9 4,5 0 0,0
18.11.2018 00:00:00 -2,3 -3,1 -5,1 8,9 13,4 3 2 8 5 E 1025,0 8 0 0,0
17.11.2018 23:00:00 -2,4 -3,2 -6,0 9,0 13,4 3 2 6 4 NE 1024,6 7 0 0,0
17.11.2018 22:00:00 -0,9 -2,0 -3,9 9,2 13,4 2 1 4 2 N 1024,5 4,5 0 0,0
17.11.2018 21:00:00 -1,1 -2,4 -4,9 9,2 13,4 3 2 6 3 NE 1024,4 8 0 0,0
17.11.2018 20:00:00 0,9 -1,3 -3,6 9,3 13,4 0 0 9 5 N 1024,2 10 0 0,0
17.11.2018 19:00:00 2,1 -1,2 -2,0 9,3 13,4 5 3 8 4 E 1024,0 14 0 0,0
17.11.2018 18:00:00 3,0 -1,0 -1,5 9,3 13,4 0 0 9 5 N 1023,9 18 0 0,0
17.11.2018 17:00:00 4,9 -0,5 2,0 9,3 13,4 4 2 20 11 E 1023,4 19 29 0,0
17.11.2018 16:00:00 6,5 -0,3 7,4 9,2 13,4 14 8 35 19 SE 1023,1 19 60 0,0
17.11.2018 15:00:00 6,9 -0,8 9,1 9,2 13,4 22 12 45 25 SE 1023,3 20 60 0,0
17.11.2018 14:00:00 6,7 -0,8 9,5 9,1 13,4 29 16 44 24 ESE 1023,2 19 60 0,0
17.11.2018 13:00:00 7,0 -0,2 8,0 9,2 13,4 27 15 44 24 ESE 1023,4 15 55 0,0
17.11.2018 12:00:00 6,5 0,0 7,8 9,2 13,4 29 16 45 24 SE 1023,8 11 60 0,0
17.11.2018 11:00:00 5,9 1,0 6,0 9,4 13,4 25 13 41 22 SE 1024,4 9 60 0,0
17.11.2018 10:00:00 3,4 0,8 0,0 9,4 13,4 4 2 8 5 WNW 1024,7 8 60 0,0
17.11.2018 09:00:00 0,9 -0,1 -1,4 9,6 13,4 2 1 6 3 WSW 1025,3 2,9 51 0,0
17.11.2018 08:00:00 -0,4 -1,0 -2,7 9,7 13,5 2 1 10 5 SSE 1025,5 6 0 0,0
17.11.2018 07:00:00 -1,2 -1,9 -3,2 9,9 13,4 3 2 8 4 SE 1025,4 3,5 0 0,0
17.11.2018 06:00:00 0,2 -0,4 -2,0 9,9 13,4 5 3 15 8 E 1025,4 6 0 0,0
17.11.2018 05:00:00 0,7 0,0 -1,9 10,0 13,5 4 2 6 3 ENE 1025,7 8 0 0,0
17.11.2018 04:00:00 1,0 -0,2 -1,4 10,1 13,5 4 2 7 4 SE 1025,9 7 0 0,0
17.11.2018 03:00:00 2,4 1,1 -0,9 10,2 13,5 6 3 10 6 ESE 1025,7 9 0 0,0
17.11.2018 02:00:00 2,6 0,7 -1,7 10,3 13,5 7 4 12 6 SSE 1025,3 9 0 0,0
17.11.2018 01:00:00 4,6 1,8 3,5 10,3 13,5 4 2 10 5 ESE 1025,1 15 0 0,0
17.11.2018 00:00:00 4,7 2,2 4,2 10,3 13,5 3 1 7 4 S 1025,3 19 0 0,0
16.11.2018 23:00:00 5,0 2,2 4,6 10,4 13,5 3 2 7 4 WSW 1025,6 19 0 0,0
16.11.2018 22:00:00 5,3 2,5 5,0 10,4 13,5 4 2 8 4 WNW 1025,7 24 0 0,0
16.11.2018 21:00:00 5,2 2,7 5,2 10,4 13,5 4 2 9 5 N 1025,8 20 0 0,0
16.11.2018 20:00:00 5,4 2,7 5,2 10,5 13,5 4 2 14 8 SE 1025,8 29 0 0,0
16.11.2018 19:00:00 5,5 3,0 5,5 10,5 13,5 10 5 16 9 SE 1025,8 20 0 0,0
16.11.2018 18:00:00 5,5 3,2 5,5 10,5 13,5 10 6 20 11 SSE 1025,8 27 0 0,0
16.11.2018 17:00:00 5,7 3,4 5,8 10,5 13,5 14 7 20 11 SSE 1025,7 42 0 0,0
16.11.2018 16:00:00 6,5 3,8 6,9 10,5 13,5 9 5 18 10 S 1025,4 48 0 0,0
16.11.2018 15:00:00 6,9 4,0 7,9 10,4 13,5 9 5 19 10 SSE 1025,5 48 0 0,0
16.11.2018 14:00:00 7,0 4,6 8,5 10,4 13,5 6 3 13 7 ENE 1025,7 35 0 0,0
16.11.2018 13:00:00 6,8 4,6 8,2 10,4 13,5 7 4 20 11 E 1025,9 20 0 0,0
16.11.2018 12:00:00 6,8 4,5 7,4 10,5 13,5 7 4 22 12 E 1026,5 39 0 0,0

tt = Température de l'air
td = dewpoint
tt 5cm = Température de l'air 5cm
tt -20cm = Température de l'air -20cm
tt -100cm = Température de l'air -100cm
ff = Vitesse du vent
fx = gusts
dd = Direction du vent
ppp = reduced air pressure
vv = visibility
sd = Ensoleillement
rr = Quantités de précipitations

stations d'obs. à proximité